Erzurum, Turkey

2:17 PM +03 on April 22, 2018 (GMT +0300)
Erzurum

Weather History for LTCE - February, 2013

Change the Weather History Date:

Tuesday, February 26, 2013

  Actual Average Record
Temperature  
Mean Temperature 20 °F -  
Max Temperature 27 °F 36 °F 44 °F (2016)
Min Temperature 14 °F 21 °F -20 °F (2007)
Degree Days  
Heating Degree Days 44    
Moisture  
Dew Point 20 °F    
Average Humidity 97    
Maximum Humidity 100    
Minimum Humidity 93    
Precipitation  
Precipitation 0.00 in 0.04 in - ()
Sea Level Pressure  
Sea Level Pressure 30.24 in    
Wind  
Wind Speed 2 mph ()    
Max Wind Speed 5 mph    
Max Gust Speed -    
Visibility 1.9 miles    
Events Fog    
Averages and records for this station are not official NWS values.
T = Trace of Precipitation, MM = Missing Value Source: Averaged Metar Reports

Daily Weather History Graph

Daily Weather History Graph

Search for Another Location

Airport or City:

Astronomy

Feb. 26, 2013 Rise Set
Actual Time 5:53 AM EET 5:03 PM EET
Civil Twilight 5:25 AM EET 5:31 PM EET
Nautical Twilight 4:54 AM EET 6:02 PM EET
Astronomical Twilight 4:23 AM EET 6:33 PM EET
Moon 5:57 PM EET (2/26) 5:44 AM EET (2/26)
Length of Visible Light 12h 05m
Length of Day
11h 10m
Full, 100% of the Moon is Illuminated
Feb 26
Full
Mar 4
Last Quarter
Mar 11
New
Mar 19
First Quarter
Mar 27
Full

Hourly Weather History & Observations

Time (EET) Temp. Windchill Dew Point Humidity Pressure Visibility Wind Dir Wind Speed Gust Speed Precip Events Conditions
12:20 AM 15.8 °F - 15.8 °F 100% 30.33 in 0.2 mi Calm Calm - N/A Fog Light Freezing Fog
12:50 AM 15.8 °F - 14.0 °F 93% 30.33 in 0.2 mi Variable 2.3 mph - N/A Fog Light Freezing Fog
1:20 AM 15.8 °F - 14.0 °F 93% 30.33 in 0.2 mi Variable 2.3 mph - N/A Fog Light Freezing Fog
1:50 AM 15.8 °F 10.2 °F 14.0 °F 93% 30.33 in 0.2 mi WSW 3.5 mph - N/A Fog Light Freezing Fog
2:00 AM 15 °F - 15 °F 99%  in 0 mi WSW 3.5 mph - - Fog Heavy Fog
2:20 AM 15.8 °F - 14.0 °F 93% 30.30 in 0.2 mi Variable 2.3 mph - N/A Fog Light Freezing Fog
2:50 AM 15.8 °F - 14.0 °F 93% 30.30 in 0.2 mi Variable 1.2 mph - N/A Fog Light Freezing Fog
3:20 AM 15.8 °F - 14.0 °F 93% 30.30 in 0.2 mi Variable 2.3 mph - N/A Fog Light Freezing Fog
3:50 AM 15.8 °F 10.2 °F 14.0 °F 93% 30.30 in 0.2 mi SSW 3.5 mph - N/A Fog Light Freezing Fog
4:20 AM 14.0 °F - 14.0 °F 100% 30.30 in 0.2 mi Variable 1.2 mph - N/A Fog Light Freezing Fog
4:50 AM 15.8 °F - 14.0 °F 93% 30.30 in 0.2 mi Calm Calm - N/A Fog Light Freezing Fog
5:20 AM 15.8 °F - 14.0 °F 93% 30.30 in 0.2 mi South 2.3 mph - N/A Fog Light Freezing Fog
5:50 AM 15.8 °F - 14.0 °F 93% 30.30 in 0.2 mi SW 2.3 mph - N/A Fog Light Freezing Fog
6:20 AM 15.8 °F - 14.0 °F 93% 30.27 in 0.2 mi South 1.2 mph - N/A Fog Light Freezing Fog
6:50 AM 15.8 °F - 15.8 °F 100% 30.27 in 0.2 mi Calm Calm - N/A Fog Light Freezing Fog
7:20 AM 17.6 °F - 17.6 °F 100% 30.30 in 0.2 mi Calm Calm - N/A Fog Light Freezing Fog
7:50 AM 17.6 °F - 17.6 °F 100% 30.30 in 0.2 mi Variable 2.3 mph - N/A Fog Light Freezing Fog
8:00 AM 18 °F - 18 °F 98%  in 0 mi SW 2.3 mph - - Fog Heavy Fog
8:20 AM 19.4 °F - 19.4 °F 100% 30.30 in 0.3 mi Variable 2.3 mph - N/A Fog Light Freezing Fog
8:50 AM 19.4 °F - 19.4 °F 100% 30.27 in 0.3 mi Variable 2.3 mph - N/A Fog Light Freezing Fog
9:20 AM 21.2 °F - 19.4 °F 93% 30.27 in 0.6 mi Variable 2.3 mph - N/A Fog Patches of Fog
9:50 AM 21.2 °F - 21.2 °F 100% 30.27 in 1.1 mi Variable 1.2 mph - N/A   Scattered Clouds
10:20 AM 23.0 °F - 23.0 °F 100% 30.27 in 1.0 mi Variable 2.3 mph - N/A   Scattered Clouds
10:50 AM 24.8 °F - 24.8 °F 100% 30.24 in 2.5 mi Variable 1.2 mph - N/A   Scattered Clouds
11:20 AM 23.0 °F 17.0 °F 23.0 °F 100% 30.24 in 2.5 mi East 4.6 mph - N/A   Scattered Clouds
11:50 AM 23.0 °F 17.0 °F 23.0 °F 100% 30.24 in 2.5 mi ESE 4.6 mph - N/A   Scattered Clouds
12:20 PM 24.8 °F 20.5 °F 24.8 °F 100% 30.21 in 4.3 mi NE 3.5 mph - N/A   Scattered Clouds
12:50 PM 26.6 °F - 24.8 °F 93% 30.21 in 5.0 mi Variable 2.3 mph - N/A   Scattered Clouds
1:20 PM 24.8 °F 20.5 °F 24.8 °F 100% 30.21 in 5.0 mi SSE 3.5 mph - N/A   Scattered Clouds
1:50 PM 26.6 °F 22.6 °F 24.8 °F 93% 30.21 in 4.3 mi Variable 3.5 mph - N/A   Scattered Clouds
2:00 PM 26 °F - 25 °F 94%  in 4 mi ENE 3.5 mph - -   Mist
2:20 PM 26.6 °F 22.6 °F 24.8 °F 93% 30.21 in 4.3 mi ENE 3.5 mph - N/A   Scattered Clouds
2:50 PM 26.6 °F - 24.8 °F 93% 30.21 in 5.0 mi Variable 2.3 mph - N/A   Scattered Clouds
3:20 PM 26.6 °F - 24.8 °F 93% 30.21 in 5.0 mi Variable 2.3 mph - N/A   Scattered Clouds
3:50 PM 24.8 °F 20.5 °F 24.8 °F 100% 30.18 in 4.3 mi ENE 3.5 mph - N/A   Scattered Clouds
4:20 PM 24.8 °F - 23.0 °F 93% 30.18 in 4.3 mi Variable 1.2 mph - N/A   Scattered Clouds
4:50 PM 24.8 °F 19.1 °F 23.0 °F 93% 30.18 in 4.3 mi SE 4.6 mph - N/A   Scattered Clouds
5:20 PM 23.0 °F 18.4 °F 23.0 °F 100% 30.18 in 3.7 mi ESE 3.5 mph - N/A   Scattered Clouds
5:50 PM 24.8 °F - 23.0 °F 93% 30.18 in 4.3 mi Variable 1.2 mph - N/A   Scattered Clouds
6:20 PM 23.0 °F - 23.0 °F 100% 30.18 in 5.0 mi Variable 2.3 mph - N/A   Scattered Clouds
6:50 PM 23.0 °F - 23.0 °F 100% 30.21 in 3.7 mi Calm Calm - N/A   Scattered Clouds
7:20 PM 23.0 °F 18.4 °F 23.0 °F 100% 30.21 in 3.7 mi WSW 3.5 mph - N/A   Scattered Clouds
7:50 PM 23.0 °F - 23.0 °F 100% 30.18 in 2.5 mi Variable 2.3 mph - N/A   Scattered Clouds
8:00 PM 23 °F - 23 °F 99%  in 2 mi WNW 2.3 mph - -   Mist
8:20 PM 23.0 °F - 23.0 °F 100% 30.21 in 2.5 mi Variable 1.2 mph - N/A   Scattered Clouds
8:50 PM 21.2 °F - 21.2 °F 100% 30.21 in 1.6 mi Variable 1.2 mph - N/A   Scattered Clouds
9:20 PM 21.2 °F - 21.2 °F 100% 30.21 in 0.7 mi Variable 2.3 mph - N/A   Scattered Clouds
9:50 PM 21.2 °F - 21.2 °F 100% 30.21 in 0.7 mi Variable 1.2 mph - N/A Fog Patches of Fog
10:20 PM 21.2 °F - 21.2 °F 100% 30.18 in 0.6 mi Variable 1.2 mph - N/A Fog Patches of Fog
10:50 PM 21.2 °F - 21.2 °F 100% 30.18 in 0.6 mi Variable 1.2 mph - N/A Fog Patches of Fog
11:20 PM 21.2 °F 14.9 °F 21.2 °F 100% 30.18 in 0.6 mi North 4.6 mph - N/A Fog Light Freezing Fog
11:50 PM 21.2 °F - 21.2 °F 100% 30.18 in - Variable 2.3 mph - N/A Fog Light Freezing Fog